Time,TemperatureF,DewpointF,PressureIn,WindDirection,WindDirectionDegrees,WindSpeedMPH,WindSpeedGustMPH,Humidity,HourlyPrecipIn,Conditions,Clouds,dailyrainin,SoftwareType,DateUTC
2013-02-01 00:09:00,5.6,0.0,30.50,WNW,292,3.0,6.0,77,0.00,,---,0.00,VWS V14.01,2013-02-01 06:09:00,
2013-02-01 00:24:00,5.6,0.0,30.49,WNW,292,4.0,5.0,77,0.00,,---,0.00,VWS V14.01,2013-02-01 06:24:00,
2013-02-01 00:39:00,5.3,-0.3,30.48,WNW,293,3.0,4.0,77,0.00,,---,0.00,VWS V14.01,2013-02-01 06:39:00,
2013-02-01 00:54:00,5.1,-0.5,30.49,WNW,293,0.0,5.0,77,0.00,,---,0.00,VWS V14.01,2013-02-01 06:54:00,
2013-02-01 01:09:00,5.0,1.7,30.49,WNW,293,0.0,4.0,86,0.00,,---,0.00,VWS V14.01,2013-02-01 07:09:00,
2013-02-01 01:24:00,4.4,-1.2,30.49,WNW,293,0.0,3.0,77,0.00,,---,0.00,VWS V14.01,2013-02-01 07:24:00,
2013-02-01 01:39:00,4.0,-1.3,30.49,WNW,293,0.0,4.0,78,0.00,,---,0.00,VWS V14.01,2013-02-01 07:39:00,
2013-02-01 01:54:00,3.9,-1.1,30.49,WNW,293,1.0,3.0,79,0.00,,---,0.00,VWS V14.01,2013-02-01 07:54:00,
2013-02-01 02:09:00,3.5,-1.5,30.49,WNW,293,0.0,1.0,79,0.00,,---,0.00,VWS V14.01,2013-02-01 08:09:00,
2013-02-01 02:24:00,3.0,-2.0,30.49,WNW,293,0.0,0.0,79,0.00,,---,0.00,VWS V14.01,2013-02-01 08:24:00,
2013-02-01 02:39:00,2.6,-2.2,30.48,WNW,293,0.0,0.0,80,0.00,,---,0.00,VWS V14.01,2013-02-01 08:39:00,
2013-02-01 02:54:00,2.3,-2.2,30.48,WNW,293,0.0,0.0,81,0.00,,---,0.00,VWS V14.01,2013-02-01 08:54:00,
2013-02-01 03:09:00,2.7,-1.5,30.48,WNW,293,1.0,1.0,82,0.00,,---,0.00,VWS V14.01,2013-02-01 09:09:00,
2013-02-01 03:24:00,2.7,-1.5,30.48,WNW,293,2.0,4.0,82,0.00,,---,0.00,VWS V14.01,2013-02-01 09:24:00,
2013-02-01 03:39:00,2.4,-1.8,30.48,WNW,293,0.0,2.0,82,0.00,,---,0.00,VWS V14.01,2013-02-01 09:39:00,
2013-02-01 03:54:00,2.4,-1.6,30.48,WNW,293,0.0,4.0,83,0.00,,---,0.00,VWS V14.01,2013-02-01 09:54:00,
2013-02-01 04:09:00,2.3,-1.7,30.48,WNW,293,0.0,3.0,83,0.00,,---,0.00,VWS V14.01,2013-02-01 10:09:00,
2013-02-01 04:24:00,2.4,-1.6,30.47,WNW,293,0.0,3.0,83,0.00,,---,0.00,VWS V14.01,2013-02-01 10:24:00,
2013-02-01 04:39:00,2.3,-1.7,30.46,WNW,293,0.0,0.0,83,0.00,,---,0.00,VWS V14.01,2013-02-01 10:39:00,
2013-02-01 04:54:00,1.9,-2.3,30.45,WNW,293,0.0,0.0,82,0.00,,---,0.00,VWS V14.01,2013-02-01 10:54:00,
2013-02-01 05:09:00,1.9,-1.8,30.45,WNW,293,1.0,3.0,84,0.00,,---,0.00,VWS V14.01,2013-02-01 11:09:00,
2013-02-01 05:24:00,1.7,-2.0,30.44,WNW,293,3.0,4.0,84,0.00,,---,0.00,VWS V14.01,2013-02-01 11:24:00,
2013-02-01 05:39:00,2.3,-1.4,30.46,WNW,294,0.0,4.0,84,0.00,,---,0.00,VWS V14.01,2013-02-01 11:39:00,
2013-02-01 05:54:00,2.7,-1.5,30.45,WNW,294,0.0,1.0,82,0.00,,---,0.00,VWS V14.01,2013-02-01 11:54:00,
2013-02-01 06:09:00,2.6,-1.9,30.46,WNW,294,2.0,5.0,81,0.00,,---,0.00,VWS V14.01,2013-02-01 12:09:00,
2013-02-01 06:24:00,2.8,-1.7,30.46,WNW,294,0.0,2.0,81,0.00,,---,0.00,VWS V14.01,2013-02-01 12:24:00,
2013-02-01 06:39:00,3.0,-1.8,30.46,WNW,294,0.0,2.0,80,0.00,,---,0.00,VWS V14.01,2013-02-01 12:39:00,
2013-02-01 06:54:00,3.4,-1.6,30.47,WNW,294,0.0,2.0,79,0.00,,---,0.00,VWS V14.01,2013-02-01 12:54:00,
2013-02-01 07:09:00,2.7,-2.3,30.48,WNW,294,2.0,4.0,79,0.00,,---,0.00,VWS V14.01,2013-02-01 13:09:00,
2013-02-01 07:24:00,2.3,-2.2,30.48,WNW,294,0.0,4.0,81,0.00,,---,0.00,VWS V14.01,2013-02-01 13:24:00,
2013-02-01 07:39:00,2.3,-1.9,30.47,WNW,294,2.0,3.0,82,0.00,,---,0.00,VWS V14.01,2013-02-01 13:39:00,
2013-02-01 07:54:00,2.5,-1.5,30.49,WNW,294,2.0,4.0,83,0.00,,---,0.00,VWS V14.01,2013-02-01 13:54:00,
2013-02-01 08:09:00,3.0,-0.7,30.50,WNW,294,1.0,4.0,84,0.00,,---,0.00,VWS V14.01,2013-02-01 14:09:00,
2013-02-01 08:24:00,4.1,0.1,30.51,SSW,211,1.0,5.0,83,0.00,,---,0.00,VWS V14.01,2013-02-01 14:24:00,
2013-02-01 08:39:00,5.4,1.4,30.51,SSW,204,4.0,4.0,83,0.00,,---,0.00,VWS V14.01,2013-02-01 14:39:00,
2013-02-01 08:54:00,6.3,1.5,30.50,SSW,213,2.0,6.0,80,0.00,,---,0.00,VWS V14.01,2013-02-01 14:54:00,
2013-02-01 09:09:00,7.7,2.0,30.50,South,188,0.0,5.0,77,0.00,,---,0.00,VWS V14.01,2013-02-01 15:09:00,
2013-02-01 09:24:00,9.3,2.1,30.50,South,188,1.0,5.0,72,0.00,,---,0.00,VWS V14.01,2013-02-01 15:24:00,
2013-02-01 09:39:00,10.4,2.6,30.49,South,172,2.0,6.0,70,0.00,,---,0.00,VWS V14.01,2013-02-01 15:39:00,
2013-02-01 09:54:00,11.3,3.1,30.48,SSE,163,0.0,8.0,69,0.00,,---,0.00,VWS V14.01,2013-02-01 15:54:00,
2013-02-01 10:09:00,12.2,3.3,30.47,SSE,155,6.0,12.0,67,0.00,,---,0.00,VWS V14.01,2013-02-01 16:09:00,
2013-02-01 10:24:00,13.0,3.8,30.46,SE,142,2.0,11.0,66,0.00,,---,0.00,VWS V14.01,2013-02-01 16:24:00,
2013-02-01 10:39:00,13.9,4.7,30.46,SSE,155,5.0,10.0,66,0.00,,---,0.00,VWS V14.01,2013-02-01 16:39:00,
2013-02-01 10:54:00,15.2,5.6,30.45,SSE,159,6.0,9.0,65,0.00,,---,0.00,VWS V14.01,2013-02-01 16:54:00,
2013-02-01 11:09:00,16.0,6.3,30.45,SSE,160,6.0,10.0,65,0.00,,---,0.00,VWS V14.01,2013-02-01 17:09:00,
2013-02-01 11:24:00,16.9,6.5,30.44,SE,145,9.0,9.0,63,0.00,,---,0.00,VWS V14.01,2013-02-01 17:24:00,
2013-02-01 11:39:00,17.5,7.1,30.44,South,173,5.0,10.0,63,0.00,,---,0.00,VWS V14.01,2013-02-01 17:39:00,
2013-02-01 11:54:00,18.1,8.0,30.42,SSE,162,0.0,11.0,64,0.00,,---,0.00,VWS V14.01,2013-02-01 17:54:00,
2013-02-01 12:09:00,18.8,7.6,30.41,SSE,162,1.0,10.0,61,0.00,,---,0.00,VWS V14.01,2013-02-01 18:09:00,
2013-02-01 12:24:00,19.9,8.3,30.40,SSE,159,8.0,12.0,60,0.00,,---,0.00,VWS V14.01,2013-02-01 18:24:00,
2013-02-01 12:39:00,20.7,8.3,30.39,SE,142,8.0,12.0,58,0.00,,---,0.00,VWS V14.01,2013-02-01 18:39:00,
2013-02-01 12:54:00,21.6,9.5,30.38,SSE,161,6.0,10.0,59,0.00,,---,0.00,VWS V14.01,2013-02-01 18:54:00,
2013-02-01 13:09:00,22.2,9.7,30.37,SSE,150,1.0,10.0,58,0.00,,---,0.00,VWS V14.01,2013-02-01 19:09:00,
2013-02-01 13:24:00,22.5,9.6,30.37,South,184,6.0,11.0,57,0.00,,---,0.00,VWS V14.01,2013-02-01 19:24:00,
2013-02-01 13:39:00,22.5,10.0,30.36,SW,217,6.0,12.0,58,0.00,,---,0.00,VWS V14.01,2013-02-01 19:39:00,
2013-02-01 13:54:00,23.0,10.8,30.36,SSW,193,8.0,9.0,59,0.00,,---,0.00,VWS V14.01,2013-02-01 19:54:00,
2013-02-01 14:09:00,23.8,12.3,30.35,SSE,161,6.0,12.0,61,0.00,,---,0.00,VWS V14.01,2013-02-01 20:09:00,
2013-02-01 14:24:00,24.3,12.4,30.34,SSE,157,1.0,12.0,60,0.00,,---,0.00,VWS V14.01,2013-02-01 20:24:00,
2013-02-01 14:39:00,24.9,13.0,30.33,SSE,159,7.0,13.0,60,0.00,,---,0.00,VWS V14.01,2013-02-01 20:39:00,
2013-02-01 14:54:00,25.1,12.4,30.32,South,187,5.0,13.0,58,0.00,,---,0.00,VWS V14.01,2013-02-01 20:54:00,
2013-02-01 15:09:00,25.2,13.3,30.31,SSE,156,5.0,13.0,60,0.00,,---,0.00,VWS V14.01,2013-02-01 21:09:00,
2013-02-01 15:24:00,25.4,13.8,30.31,South,180,5.0,15.0,61,0.00,,---,0.00,VWS V14.01,2013-02-01 21:24:00,
2013-02-01 15:39:00,25.4,13.1,30.31,SSE,167,5.0,11.0,59,0.00,,---,0.00,VWS V14.01,2013-02-01 21:39:00,
2013-02-01 15:54:00,25.4,13.5,30.30,South,178,4.0,11.0,60,0.00,,---,0.00,VWS V14.01,2013-02-01 21:54:00,
2013-02-01 16:09:00,25.4,14.2,30.29,South,181,2.0,11.0,62,0.00,,---,0.00,VWS V14.01,2013-02-01 22:09:00,
2013-02-01 16:24:00,25.2,14.4,30.29,South,174,4.0,12.0,63,0.00,,---,0.00,VWS V14.01,2013-02-01 22:24:00,
2013-02-01 16:39:00,25.0,13.8,30.28,South,171,6.0,13.0,62,0.00,,---,0.00,VWS V14.01,2013-02-01 22:39:00,
2013-02-01 16:54:00,24.9,14.5,30.27,SSE,165,5.0,11.0,64,0.00,,---,0.00,VWS V14.01,2013-02-01 22:54:00,
2013-02-01 17:09:00,25.0,15.3,30.26,SSE,163,5.0,10.0,66,0.00,,---,0.00,VWS V14.01,2013-02-01 23:09:00,
2013-02-01 17:24:00,25.1,15.4,30.25,South,188,5.0,11.0,66,0.00,,---,0.00,VWS V14.01,2013-02-01 23:24:00,
2013-02-01 17:39:00,25.2,15.1,30.24,South,179,1.0,13.0,65,0.00,,---,0.00,VWS V14.01,2013-02-01 23:39:00,
2013-02-01 17:54:00,25.0,14.9,30.23,South,175,7.0,15.0,65,0.00,,---,0.00,VWS V14.01,2013-02-01 23:54:00,
2013-02-01 18:09:00,24.9,15.2,30.22,South,169,10.0,13.0,66,0.00,,---,0.00,VWS V14.01,2013-02-02 00:09:00,
2013-02-01 18:24:00,24.8,15.8,30.22,South,171,6.0,14.0,68,0.00,,---,0.00,VWS V14.01,2013-02-02 00:24:00,
2013-02-01 18:39:00,24.8,15.8,30.22,SSE,150,5.0,12.0,68,0.00,,---,0.00,VWS V14.01,2013-02-02 00:39:00,
2013-02-01 18:54:00,24.7,15.7,30.21,SSE,153,5.0,12.0,68,0.00,,---,0.00,VWS V14.01,2013-02-02 00:54:00,
2013-02-01 19:09:00,24.4,15.4,30.21,South,175,6.0,14.0,68,0.00,,---,0.00,VWS V14.01,2013-02-02 01:09:00,
2013-02-01 19:24:00,24.2,15.2,30.22,South,180,5.0,12.0,68,0.00,,---,0.00,VWS V14.01,2013-02-02 01:24:00,
2013-02-01 19:39:00,24.5,15.1,30.23,South,177,7.0,10.0,67,0.00,,---,0.00,VWS V14.01,2013-02-02 01:39:00,
2013-02-01 19:54:00,24.7,15.0,30.23,SSE,154,7.0,12.0,66,0.00,,---,0.00,VWS V14.01,2013-02-02 01:54:00,
2013-02-01 20:09:00,24.8,15.1,30.23,South,180,3.0,9.0,66,0.00,,---,0.00,VWS V14.01,2013-02-02 02:09:00,
2013-02-01 20:24:00,24.7,15.3,30.23,SSE,147,4.0,8.0,67,0.00,,---,0.00,VWS V14.01,2013-02-02 02:24:00,
2013-02-01 20:39:00,24.8,15.4,30.22,South,177,2.0,7.0,67,0.00,,---,0.00,VWS V14.01,2013-02-02 02:39:00,
2013-02-01 20:54:00,24.8,15.4,30.23,SSW,198,2.0,6.0,67,0.00,,---,0.00,VWS V14.01,2013-02-02 02:54:00,
2013-02-01 21:09:00,24.7,15.7,30.22,SSE,161,1.0,6.0,68,0.00,,---,0.00,VWS V14.01,2013-02-02 03:09:00,
2013-02-01 21:24:00,24.8,15.8,30.22,South,188,1.0,9.0,68,0.00,,---,0.00,VWS V14.01,2013-02-02 03:24:00,
2013-02-01 21:39:00,24.7,16.0,30.22,South,177,2.0,6.0,69,0.00,,---,0.00,VWS V14.01,2013-02-02 03:39:00,
2013-02-01 21:54:00,24.7,16.0,30.22,South,186,3.0,6.0,69,0.00,,---,0.00,VWS V14.01,2013-02-02 03:54:00,
2013-02-01 22:09:00,24.7,16.0,30.21,South,183,5.0,8.0,69,0.00,,---,0.00,VWS V14.01,2013-02-02 04:09:00,
2013-02-01 22:24:00,24.7,16.0,30.20,South,186,5.0,8.0,69,0.00,,---,0.00,VWS V14.01,2013-02-02 04:24:00,
2013-02-01 22:39:00,24.8,16.1,30.19,South,191,3.0,8.0,69,0.00,,---,0.00,VWS V14.01,2013-02-02 04:39:00,
2013-02-01 22:54:00,25.0,16.3,30.19,South,174,4.0,9.0,69,0.00,,---,0.00,VWS V14.01,2013-02-02 04:54:00,
2013-02-01 23:09:00,25.3,16.9,30.18,South,177,1.0,7.0,70,0.00,,---,0.00,VWS V14.01,2013-02-02 05:09:00,
2013-02-01 23:24:00,25.6,16.9,30.18,South,177,4.0,7.0,69,0.00,,---,0.00,VWS V14.01,2013-02-02 05:24:00,
2013-02-01 23:39:00,25.6,16.9,30.17,South,178,1.0,7.0,69,0.00,,---,0.00,VWS V14.01,2013-02-02 05:39:00,
2013-02-01 23:54:00,25.4,17.0,30.17,South,178,1.0,6.0,70,0.00,,---,0.00,VWS V14.01,2013-02-02 05:54:00,